This is the latest recevied weather packets stored in our database for station/object NK7E. If no packets are shown the sender has not sent any weather packets the latest 10 day(s).
| Time | Temp. | Humidity | Pressure | Rain* | Wind** | Luminosity | Snow |
|---|---|---|---|---|---|---|---|
| 1777642516 | 16.11° C | 62% | 1012.4 hPa | 0 mm | - | 137 W/m² | - |
| 1777641916 | 15.56° C | 64% | 1012.4 hPa | 0 mm | - | 105 W/m² | - |
| 1777641316 | 15° C | 65% | 1012.4 hPa | 0 mm | - | 70 W/m² | - |
| 1777640716 | 14.44° C | 66% | 1012.2 hPa | 0 mm | - | 20 W/m² | - |
| 1777640116 | 14.44° C | 66% | 1012.1 hPa | 0 mm | - | 14 W/m² | - |
| 1777639516 | 14.44° C | 67% | 1012 hPa | 0 mm | - | 8 W/m² | - |
| 1777638916 | 14.44° C | 66% | 1012 hPa | 0 mm | - | 0 W/m² | - |
| 1777638316 | 14.44° C | 66% | 1011.9 hPa | 0 mm | - | 0 W/m² | - |
| 1777637716 | 14.44° C | 66% | 1011.8 hPa | 0 mm | - | 0 W/m² | - |
| 1777637116 | 14.44° C | 66% | 1011.8 hPa | 0 mm | - | 0 W/m² | - |
| 1777636516 | 15° C | 66% | 1011.8 hPa | 0 mm | - | 0 W/m² | - |
| 1777635916 | 15° C | 66% | 1011.8 hPa | 0 mm | - | 0 W/m² | - |
| 1777635316 | 15° C | 66% | 1011.6 hPa | 0 mm | - | 0 W/m² | - |
| 1777634716 | 15° C | 66% | 1011.5 hPa | 0 mm | - | 0 W/m² | - |
| 1777634116 | 15° C | 66% | 1011.5 hPa | 0 mm | - | 0 W/m² | - |
| 1777633516 | 15° C | 65% | 1011.3 hPa | 0 mm | - | 0 W/m² | - |
| 1777632916 | 15° C | 64% | 1011.2 hPa | 0 mm | - | 0 W/m² | - |
| 1777632316 | 15.56° C | 63% | 1011.2 hPa | 0 mm | - | 0 W/m² | - |
| 1777631716 | 15.56° C | 63% | 1011.1 hPa | 0 mm | - | 0 W/m² | - |
| 1777631116 | 15.56° C | 64% | 1011.1 hPa | 0 mm | - | 0 W/m² | - |
| 1777630516 | 15.56° C | 64% | 1011 hPa | 0 mm | - | 0 W/m² | - |
| 1777629916 | 15.56° C | 65% | 1010.9 hPa | 0 mm | - | 0 W/m² | - |
| 1777629316 | 15.56° C | 64% | 1011 hPa | 0 mm | - | 0 W/m² | - |
| 1777628716 | 15.56° C | 63% | 1010.9 hPa | 0 mm | - | 0 W/m² | - |
| 1777628116 | 15.56° C | 61% | 1010.8 hPa | 0 mm | - | 0 W/m² | - |
* Rain latest hour (hover to see other rain measurements)
** Current wind speed in m/s (hover to see current wind gust speed)